Weather History for Andrews, NC

Change the Weather History Date:

Tuesday, July 22, 2014

  Actual Average (KTYS) Record (KTYS)
Temperature  
Mean Temperature 72 °F 79 °F  
Max Temperature 82 °F 88 °F 100 °F (1952)
Min Temperature 63 °F 69 °F 57 °F (1902)
Degree Days  
Heating Degree Days 0 0  
Month to date heating degree days 0  
Since 1 June heating degree days 4  
Since 1 July heating degree days 0  
Cooling Degree Days 8 14  
Month to date cooling degree days 298  
Year to date cooling degree days 765  
Since 1 June cooling degree days 603  
Growing Degree Days 22 (Base 50)    
Moisture  
Dew Point 68 °F    
Average Humidity 88    
Maximum Humidity 100    
Minimum Humidity 66    
Precipitation  
Precipitation 0.03 in 0.16 in 2.05 in (1954)
Month to date precipitation 3.70  
Year to date precipitation 28.95  
Snow  
Snow 0.00 in 0.00 in - ()
Month to date snowfall 0.0  
Since 1 June snowfall 0.0  
Since 1 July snowfall 0.0  
Snow Depth -    
Sea Level Pressure  
Sea Level Pressure 30.16 in    
Wind  
Wind Speed 1 mph (SSW)    
Max Wind Speed 6 mph    
Max Gust Speed -    
Visibility 10 miles    
Events Rain    
T = Trace of Precipitation, MM = Missing Value Source: NWS Daily Summary

Daily Weather History Graph

Daily Weather History Graph

Search for Another Location

Airport:

Trip Planner

Search our weather history database for the weather conditions in past years. The results will help you decide how hot, cold, wet, or windy it might be!

Date:

Astronomy

Jul. 22, 2014 Rise Set
Actual Time 6:37 AM EDT 8:46 PM EDT
Civil Twilight 6:08 AM EDT 9:14 PM EDT
Nautical Twilight 5:33 AM EDT 9:49 PM EDT
Astronomical Twilight 4:55 AM EDT 10:27 PM EDT
Moon 3:07 AM EDT (7/22) 5:24 PM EDT (7/22)
Length of Visible Light 15h 06m
Length of Day
14h 09m
Waning Crescent, 16% of the Moon is Illuminated
Jul 22
Waning Crescent
Jul 26
New
Aug 3
First Quarter
Aug 10
Full
Aug 17
Last Quarter

Hourly Weather History & Observations

Time (EDT) Temp. Heat Index Dew Point Humidity Pressure Visibility Wind Dir Wind Speed Gust Speed Precip Events Conditions
12:15 AM 68.2 °F - 67.1 °F 96% 30.16 in 7.0 mi Calm Calm - N/A   Clear
12:35 AM 68.2 °F - 67.1 °F 96% 30.16 in 10.0 mi Calm Calm - N/A   Clear
12:55 AM 68.0 °F - 67.1 °F 97% 30.16 in 7.0 mi Calm Calm - N/A   Scattered Clouds
1:15 AM 67.1 °F - 66.4 °F 98% 30.16 in 7.0 mi Calm Calm - N/A   Scattered Clouds
1:35 AM 67.1 °F - 66.4 °F 98% 30.16 in 7.0 mi Calm Calm - N/A   Clear
1:55 AM 66.9 °F - 66.2 °F 98% 30.15 in 7.0 mi Calm Calm - N/A   Mostly Cloudy
2:15 AM 66.2 °F - 65.7 °F 98% 30.15 in 7.0 mi Calm Calm - N/A   Overcast
2:35 AM 65.7 °F - 65.1 °F 98% 30.15 in 7.0 mi NE 3.5 mph - N/A   Scattered Clouds
2:55 AM 65.5 °F - 65.1 °F 99% 30.15 in 7.0 mi Calm Calm - N/A   Mostly Cloudy
3:15 AM 66.0 °F - 65.3 °F 98% 30.15 in 10.0 mi Calm Calm - N/A   Overcast
3:35 AM 65.3 °F - 64.8 °F 98% 30.15 in 7.0 mi Calm Calm - N/A   Mostly Cloudy
3:55 AM 64.8 °F - 64.4 °F 99% 30.15 in 7.0 mi Calm Calm - N/A   Scattered Clouds
4:15 AM 64.4 °F - 63.9 °F 98% 30.15 in 10.0 mi Calm Calm - N/A   Clear
4:35 AM 64.2 °F - 63.5 °F 98% 30.15 in 10.0 mi Calm Calm - N/A   Clear
4:55 AM 63.5 °F - 63.1 °F 99% 30.15 in 7.0 mi Calm Calm - N/A   Clear
5:15 AM 63.3 °F - 63.0 °F 99% 30.15 in 10.0 mi Calm Calm - N/A   Clear
5:35 AM 63.0 °F - 62.8 °F 99% 30.15 in 10.0 mi Calm Calm - N/A   Clear
5:55 AM 63.0 °F - 62.6 °F 99% 30.16 in 10.0 mi Calm Calm - N/A   Clear
6:15 AM 63.0 °F - 62.6 °F 99% 30.17 in 10.0 mi Calm Calm - N/A   Clear
7:35 AM 64.4 °F - 63.5 °F 97% 30.19 in 10.0 mi Calm Calm - N/A   Clear
7:55 AM 64.6 °F - 63.7 °F 97% 30.19 in 10.0 mi Calm Calm - N/A   Mostly Cloudy
8:15 AM 64.9 °F - 64.2 °F 98% 30.20 in 10.0 mi Calm Calm - N/A   Overcast
8:35 AM 65.8 °F - 64.4 °F 95% 30.20 in 10.0 mi Calm Calm - N/A   Overcast
8:55 AM 67.3 °F - 65.5 °F 94% 30.20 in 10.0 mi Calm Calm - N/A   Overcast
9:15 AM 69.4 °F - 66.4 °F 90% 30.20 in 10.0 mi Calm Calm - N/A   Scattered Clouds
9:35 AM 70.0 °F - 67.1 °F 91% 30.20 in 10.0 mi West 5.8 mph - N/A   Clear
9:55 AM 71.8 °F - 67.1 °F 85% 30.20 in 10.0 mi WSW 3.5 mph - N/A   Clear
10:15 AM 74.1 °F - 67.8 °F 81% 30.20 in 10.0 mi West 4.6 mph - N/A   Scattered Clouds
10:35 AM 75.7 °F - 67.6 °F 76% 30.20 in 10.0 mi Calm Calm - N/A   Mostly Cloudy
10:55 AM 76.8 °F - 67.5 °F 73% 30.19 in 10.0 mi Calm Calm - N/A   Mostly Cloudy
11:15 AM 76.5 °F - 67.1 °F 73% 30.19 in 10.0 mi SSW 3.5 mph - N/A   Mostly Cloudy
11:35 AM 77.7 °F - 67.5 °F 71% 30.18 in 10.0 mi Calm Calm - N/A   Overcast
11:55 AM 78.8 °F - 66.9 °F 67% 30.18 in 10.0 mi Calm Calm - N/A   Overcast
12:15 PM 78.1 °F - 66.9 °F 68% 30.17 in 10.0 mi Calm Calm - N/A   Overcast
12:35 PM 78.3 °F - 67.3 °F 69% 30.17 in 10.0 mi Calm Calm - N/A   Overcast
1:15 PM 78.8 °F - 67.1 °F 67% 30.16 in 10.0 mi Calm Calm - N/A   Overcast
1:35 PM 79.7 °F - 67.5 °F 66% 30.16 in 10.0 mi SE 3.5 mph - N/A   Overcast
1:55 PM 79.0 °F - 68.0 °F 69% 30.16 in 10.0 mi Calm Calm - N/A   Overcast
2:15 PM 79.7 °F - 68.2 °F 68% 30.15 in 10.0 mi Calm Calm - N/A   Overcast
2:35 PM 79.9 °F - 69.4 °F 70% 30.15 in 10.0 mi Calm Calm - N/A   Overcast
2:50 PM 81.3 °F 84.6 °F 69.3 °F 67% 30.14 in 10.0 mi Calm Calm - N/A   Overcast
3:15 PM 81.1 °F 84.5 °F 69.8 °F 68% 30.14 in 10.0 mi West 3.5 mph - N/A   Scattered Clouds
3:35 PM 82.6 °F 86.6 °F 70.2 °F 66% 30.13 in 10.0 mi Calm Calm - N/A   Mostly Cloudy
3:55 PM 81.1 °F 84.4 °F 69.4 °F 67% 30.13 in 10.0 mi WSW 3.5 mph - N/A   Mostly Cloudy
4:15 PM 77.2 °F - 71.8 °F 83% 30.13 in 10.0 mi South 5.8 mph - 0.01 in Rain Light Rain
4:35 PM 77.9 °F - 71.2 °F 80% 30.13 in 10.0 mi Calm Calm - 0.01 in   Overcast
4:55 PM 77.9 °F - 69.3 °F 75% 30.12 in 10.0 mi East 5.8 mph - 0.01 in   Overcast
5:15 PM 78.8 °F - 68.7 °F 71% 30.12 in 10.0 mi ESE 3.5 mph - N/A   Mostly Cloudy
5:35 PM 79.9 °F - 69.8 °F 71% 30.12 in 10.0 mi ESE 3.5 mph - N/A   Scattered Clouds
5:55 PM 79.5 °F - 68.7 °F 69% 30.12 in 10.0 mi ENE 4.6 mph - N/A   Scattered Clouds
6:15 PM 79.0 °F - 70.7 °F 76% 30.11 in 10.0 mi Calm Calm - N/A Rain Light Rain
6:35 PM 76.3 °F - 72.7 °F 89% 30.11 in 10.0 mi Calm Calm - 0.02 in Rain Light Rain
6:55 PM 75.0 °F - 73.4 °F 95% 30.12 in 10.0 mi West 4.6 mph - 0.02 in   Mostly Cloudy
7:15 PM 73.6 °F - 72.0 °F 95% 30.12 in 10.0 mi Calm Calm - N/A   Overcast
7:35 PM 72.7 °F - 71.1 °F 95% 30.13 in 10.0 mi WSW 5.8 mph - N/A   Overcast
7:55 PM 72.1 °F - 70.5 °F 95% 30.13 in 10.0 mi Calm Calm - N/A   Mostly Cloudy
8:15 PM 72.0 °F - 70.9 °F 96% 30.14 in 10.0 mi Calm Calm - N/A   Overcast
8:35 PM 71.8 °F - 70.9 °F 97% 30.15 in 10.0 mi Calm Calm - N/A   Overcast
8:55 PM 71.6 °F - 70.7 °F 97% 30.15 in 10.0 mi Calm Calm - N/A   Overcast
9:15 PM 71.6 °F - 70.7 °F 97% 30.16 in 10.0 mi Calm Calm - N/A Rain Light Rain
9:55 PM 69.8 °F - 69.3 °F 98% 30.17 in 10.0 mi Calm Calm - N/A   Scattered Clouds
10:15 PM 69.1 °F - 68.7 °F 99% 30.18 in 10.0 mi Calm Calm - N/A   Mostly Cloudy
10:40 PM 69.1 °F - 68.9 °F 99% 30.18 in 10.0 mi Calm Calm - N/A   Overcast
10:55 PM 69.3 °F - 69.1 °F 99% 30.19 in 10.0 mi Calm Calm - N/A   Overcast
11:15 PM 69.1 °F - 69.1 °F 100% 30.18 in 10.0 mi Calm Calm - N/A   Overcast
11:35 PM 69.1 °F - 68.9 °F 99% 30.18 in 10.0 mi Calm Calm - N/A   Overcast
11:55 PM 69.4 °F - 69.1 °F 99% 30.18 in 10.0 mi Calm Calm - N/A   Overcast